Upington, South Africa

2:05 PM SAST on September 22, 2017 (GMT +0200)
Upington

Weather History for FAUP - October, 2012

Change the Weather History Date:

Saturday, October 27, 2012

  Actual Average Record
Temperature  
Mean Temperature 74 °F -  
Max Temperature 95 °F 88 °F 106 °F (2016)
Min Temperature 52 °F 60 °F 32 °F (2003)
Cooling Degree Days 8    
Growing Degree Days 24 (Base 50)    
Moisture  
Dew Point 23 °F    
Average Humidity 18    
Maximum Humidity 54    
Minimum Humidity 4    
Precipitation  
Precipitation 0.00 in 0.00 in - ()
Sea Level Pressure  
Sea Level Pressure 29.99 in    
Wind  
Wind Speed 4 mph ()    
Max Wind Speed 13 mph    
Max Gust Speed -    
Averages and records for this station are not official NWS values.
T = Trace of Precipitation, MM = Missing Value Source: Averaged Metar Reports

Daily Weather History Graph

Daily Weather History Graph

Search for Another Location

Airport or City:

Trip Planner

Search our weather history database for the weather conditions in past years. The results will help you decide how hot, cold, wet, or windy it might be!

Date:

Astronomy

Oct. 27, 2012 Rise Set
Actual Time 5:46 AM SAST 6:51 PM SAST
Civil Twilight 5:21 AM SAST 7:16 PM SAST
Nautical Twilight 4:52 AM SAST 7:45 PM SAST
Astronomical Twilight 4:22 AM SAST 8:15 PM SAST
Moon 4:57 PM SAST (10/27) 4:05 AM SAST (10/27)
Length of Visible Light 13h 54m
Length of Day
13h 05m
Waxing Gibbous, 95% of the Moon is Illuminated
Oct 27
Waxing Gibbous
Oct 29
Full
Nov 7
Last Quarter
Nov 14
New
Nov 20
First Quarter

Hourly Weather History & Observations

Time (SAST) Temp. Dew Point Humidity Pressure Visibility Wind Dir Wind Speed Gust Speed Precip Events Conditions
12:00 AM 60.8 °F 17.6 °F 19% 30.01 in - WSW 3.5 mph - N/A   Unknown
1:00 AM 60.8 °F 19.4 °F 20% 29.98 in - WSW 3.5 mph - N/A   Unknown
2:00 AM 57 °F 27 °F 19%  in - West 5.8 mph - -  
2:00 AM 55.4 °F 26.6 °F 33% 29.98 in - West 4.6 mph - N/A   Unknown
3:00 AM 55.4 °F 32.0 °F 41% 29.98 in - West 3.5 mph - N/A   Unknown
4:00 AM 53.6 °F 32.0 °F 44% 29.98 in - West 3.5 mph - N/A   Unknown
5:00 AM 54 °F 34 °F 34%  in 25 mi West 4.6 mph - -  
5:00 AM 53.6 °F 33.8 °F 47% 29.98 in - West 3.5 mph - N/A   Clear
6:00 AM 51.8 °F 35.6 °F 54% 30.01 in - West 2.3 mph - N/A   Clear
6:33 AM 57.2 °F 35.6 °F 44% 30.01 in - Calm Calm - N/A   Clear
7:00 AM 62.6 °F 37.4 °F 39% 30.01 in - Calm Calm - N/A   Clear
7:09 AM 66.2 °F 37.4 °F 35% 30.04 in - Calm Calm - N/A   Clear
8:00 AM 70 °F 35 °F 17%  in 25 mi ENE 2.3 mph - -  
8:00 AM 68.0 °F 33.8 °F 28% 30.04 in - ENE 1.2 mph - N/A   Clear
8:34 AM 75.2 °F 33.8 °F 22% 30.04 in - NE 2.3 mph - N/A   Clear
9:00 AM 78.8 °F 30.2 °F 17% 30.04 in - ENE 5.8 mph - N/A   Clear
9:39 AM 82.4 °F 28.4 °F 14% 30.04 in - ENE 3.5 mph - N/A   Clear
10:00 AM 84.2 °F 28.4 °F 13% 30.04 in - East 3.5 mph - N/A   Clear
11:00 AM 87 °F 19 °F 4%  in 25 mi West 4.6 mph - -  
11:00 AM 86.0 °F 19.4 °F 9% 30.04 in - West 4.6 mph - N/A   Clear
12:00 PM 89.6 °F 12.2 °F 6% 30.01 in - WNW 6.9 mph - N/A   Clear
1:00 PM 91.4 °F 17.6 °F 7% 29.98 in - SW 5.8 mph - N/A   Clear
2:00 PM 94 °F 13 °F 4%  in 25 mi West 9.2 mph - -   Clear
2:00 PM 93.2 °F 14.0 °F 5% 29.95 in - West 8.1 mph - N/A   Clear
3:00 PM 95.0 °F 10.4 °F 4% 29.92 in - WSW 12.7 mph - N/A   Clear
4:00 PM 93.2 °F 8.6 °F 4% 29.92 in - West 11.5 mph - N/A   Clear
5:00 PM 94 °F 14 °F 4%  in 25 mi WSW 11.5 mph - -  
5:00 PM 93.2 °F 14.0 °F 5% 29.92 in - WSW 11.5 mph - N/A   Clear
6:00 PM 89.6 °F 19.4 °F 8% 29.92 in - SW 9.2 mph - N/A   Clear
7:00 PM 80.6 °F 21.2 °F 11% 29.95 in - South 5.8 mph - N/A   Clear
8:00 PM 79 °F 18 °F 4%  in 25 mi WSW 3.5 mph - -  
8:00 PM 78.8 °F 19.4 °F 11% 29.95 in - WSW 3.5 mph - N/A   Clear
9:00 PM 77.0 °F 15.8 °F 10% 29.95 in - WSW 2.3 mph - N/A   Unknown
10:00 PM 68.0 °F 15.8 °F 13% 29.98 in - West 3.5 mph - N/A   Unknown
11:00 PM 71 °F 14 °F 5%  in - Calm Calm - -  
11:00 PM 69.8 °F 14.0 °F 12% 29.98 in - Calm Calm - N/A   Unknown